TimeMST,TemperatureF,Dew PointF,Humidity,Sea Level PressureIn,VisibilityMPH,Wind Direction,Wind SpeedMPH,Gust SpeedMPH,PrecipitationIn,Events,Conditions,WindDirDegrees,DateUTC
12:52 AM,18.0,5.0,57,30.13,10.0,Calm,Calm,-,N/A,,Clear,0,2012-12-21 07:52:00
1:52 AM,18.0,5.0,57,30.13,10.0,NNE,3.5,-,N/A,,Clear,30,2012-12-21 08:52:00
2:52 AM,16.0,5.0,62,30.13,10.0,West,4.6,-,N/A,,Clear,270,2012-12-21 09:52:00
3:52 AM,18.0,6.1,60,30.12,10.0,Calm,Calm,-,N/A,,Clear,0,2012-12-21 10:52:00
4:52 AM,16.0,5.0,62,30.14,10.0,SW,3.5,-,N/A,,Clear,220,2012-12-21 11:52:00
5:52 AM,16.0,5.0,62,30.17,10.0,Calm,Calm,-,N/A,,Clear,0,2012-12-21 12:52:00
6:52 AM,21.0,8.1,57,30.15,10.0,WNW,3.5,-,N/A,,Clear,300,2012-12-21 13:52:00
7:52 AM,28.0,8.1,43,30.13,10.0,Calm,Calm,-,N/A,,Clear,0,2012-12-21 14:52:00
8:52 AM,37.9,12.0,35,30.12,10.0,WNW,4.6,-,N/A,,Clear,290,2012-12-21 15:52:00
9:52 AM,39.9,18.0,41,30.12,10.0,Calm,Calm,-,N/A,,Clear,0,2012-12-21 16:52:00
10:52 AM,45.0,15.1,30,30.08,10.0,Calm,Calm,-,N/A,,Clear,0,2012-12-21 17:52:00
11:52 AM,50.0,12.0,22,30.05,10.0,SE,4.6,-,N/A,,Clear,140,2012-12-21 18:52:00
12:52 PM,53.1,9.0,17,30.01,10.0,ESE,3.5,-,N/A,,Clear,120,2012-12-21 19:52:00
1:52 PM,53.1,9.0,17,30.00,10.0,SE,8.1,-,N/A,,Clear,140,2012-12-21 20:52:00
2:52 PM,52.0,8.1,17,30.01,10.0,East,3.5,-,N/A,,Clear,90,2012-12-21 21:52:00
3:52 PM,39.0,14.0,36,30.03,10.0,NNE,11.5,-,N/A,,Clear,20,2012-12-21 22:52:00
4:52 PM,30.0,10.9,45,30.06,10.0,North,12.7,-,N/A,,Clear,360,2012-12-21 23:52:00
5:52 PM,28.0,10.9,49,30.06,10.0,North,10.4,-,N/A,,Clear,10,2012-12-22 00:52:00
6:52 PM,26.1,12.0,55,30.06,10.0,SW,6.9,-,N/A,,Clear,220,2012-12-22 01:52:00
7:52 PM,23.0,10.9,60,30.03,10.0,NW,6.9,-,N/A,,Clear,320,2012-12-22 02:52:00
8:52 PM,27.0,12.0,53,29.99,10.0,NW,6.9,-,N/A,,Clear,310,2012-12-22 03:52:00
9:52 PM,30.9,5.0,33,29.97,10.0,NW,6.9,-,N/A,,Clear,310,2012-12-22 04:52:00
10:52 PM,37.0,5.0,26,29.94,10.0,NW,10.4,-,N/A,,Clear,320,2012-12-22 05:52:00
11:52 PM,35.1,3.9,27,29.93,10.0,WNW,10.4,-,N/A,,Clear,300,2012-12-22 06:52:00